星链-35421(STARLINK-35421)

导读

STARLINK-35421是美国SpaceX星链互联网星座中的一员,于2025年10月19日发射升空。它延续了星链星座标准化设计与部署理念,承担低轨卫星互联网服务任务,为全球提供高速宽带接入,尤其覆盖偏远地区与传统网络难以通达区域,进一步扩充星链星座规模,支撑星座全球服务能力提升。

Basic Information
目录编号:
66062
目录名称:
STARLINK-35421
国际标识:
2025-235E
轨道中心:
EARTH
卫星名称:
星链-35421
卫星全名:
星链-35421(STARLINK-35421)
卫星状态:
在轨 (已飞行321 天)
发射日期:
2025-10-19 UTC
国别 :
美国 (US)
星等 :
--
Orbit Information
数据来源 国际轨道数据
星历时间: 2026-09-05T10:13:49+0800
15小时前
查看轨道信息
半长轴: 6840.848km
偏心率: 0.0001219
轨道倾角: 53.155°
近地点辐角 89.050°
升交点赤经 129.499°
平近点角 271.064°
近地点: 461.877km
远地点: 463.545km
周期: 93.848分钟
每日圈数: 15.343977
Detailed Information
固有亮度:
5
最大亮度:
2.5
卫星平台:
Starlink V1.0
覆盖范围:
全球
运营商:
太空探索技术公司
运营商所在国:
美国
制造商(研发单位):
太空探索技术公司
制造商所在国:
美国
使用方式:
暂无
Satellite Introduction
Starlink 计划是 SpaceX 推出的全球卫星互联网项目,通过发射低轨道卫星,为全球尤其是偏远地区提供高速、低延迟的互联网服务。自 2019 年起,Starlink 已部署数千颗卫星,旨在缩小全球数字鸿沟,推动互联网普及。该项目还为军事、航空等行业提供通信支持,带来广泛经济效益。
2D Orbit Map
3D Orbit Map
Orbit Altitude Analysis Chart
Orbit Inclination Analysis Chart
Orbit Comprehensive Analysis Chart
View Comprehensive Chart
Conjunction Data List
Event ID Objects TCA Miss Dist (km) Collision Risk Probability Collision Risk Index (CRI) Action
CDM_260907-162306-606206-818021
2026-09-07T
16:23:42+0000
0.647 km
远距离
3.121269E-5 中风险 0.65
CDM_260907-232506-606206-818021
2026-09-07T
23:25:45+0000
0.676 km
远距离
2.712468E-5 中风险 0.64
CDM_260907-215106-606206-818021
2026-09-07T
21:51:58+0000
0.845 km
远距离
1.301673E-5 中风险 0.57
CDM_260907-144906-606206-818021
2026-09-07T
14:49:54+0000
0.853 km
远距离
1.262245E-5 中风险 0.57
CDM_260907-122706-394306-606221
2026-09-07T
12:27:02+0000
1.664 km
极远距离
2.874135E-6 低风险 0.44
CDM_260907-232206-370406-606221
2026-09-07T
23:22:18+0000
1.779 km
极远距离
1.321326E-6 低风险 0.37
CDM_260903-081005-298606-606221
2026-09-03T
08:10:36+0000
2.728 km
极远距离
1.295841E-6 低风险 0.37
CDM_260907-175706-606206-818021
2026-09-07T
17:57:29+0000
2.062 km
极远距离
8.582702E-7 极低风险 0.34
CDM_260908-005906-606206-818021
2026-09-08T
00:59:33+0000
2.202 km
极远距离
7.521038E-7 极低风险 0.33
CDM_260907-131606-606206-818021
2026-09-07T
13:16:07+0000
2.241 km
极远距离
7.271348E-7 极低风险 0.32